Location: Peterborough
(44.3091°N, 78.3197°W)
Time: 01:06:47
(UTC-04:00)

Vanguard 2 Rocket - Pass Details

Date: 25 March 2023
Orbit: 554 x 3314 km, 32.9° (Epoch: 02 June)

Event Time Altitude Azimuth Distance (km) Brightness Sun altitude
Rises 20:27:25 0° 227° (SW) 3,489 10.4 -10.7°
Reaches altitude 10° 20:29:48 10° 217° (SW) 2,805 9.7 -11.1°
Maximum altitude 20:35:52 32° 155° (SSE) 2,214 8.5 -12.1°
Enters shadow 20:43:02 16° 105° (ESE) 3,816 9.4 -13.4°
